DAL1262 KSEA-KPDX

Flight info

Callsign DAL1262
Flight time 0h 41m
Altitude 17000
Route SEA1 SEA BUWZO KRATR3
Aircraft A321/M-SDE3FGHIRWY/LB1

Departure

Time 2026-05-04 21:59
Airport Seattle–Tacoma International Airport (KSEA)

Arrival

Time 2026-05-04 22:41
Airport Portland International Airport (KPDX)
Time Latitude Longitude Altitude Speed Heading
2026-05-04 21:35 47.43944 -122.30249 435 ft 0 kts 152°
2026-05-04 21:47 47.43945 -122.30249 434 ft 0 kts 152°
2026-05-04 21:48 47.43946 -122.30250 434 ft 1 kts 152°
2026-05-04 21:48 47.43959 -122.30260 434 ft 2 kts 152°
2026-05-04 21:48 47.43972 -122.30271 434 ft 2 kts 152°
2026-05-04 21:48 47.43986 -122.30282 434 ft 2 kts 152°
2026-05-04 21:49 47.44000 -122.30293 434 ft 2 kts 172°
2026-05-04 21:49 47.44015 -122.30289 434 ft 2 kts 208°
2026-05-04 21:49 47.44024 -122.30278 434 ft 0 kts 236°
2026-05-04 21:49 47.44027 -122.30269 434 ft 1 kts 240°
2026-05-04 21:50 47.44028 -122.30267 434 ft 0 kts 239°
2026-05-04 21:51 47.44028 -122.30268 434 ft 0 kts 239°
2026-05-04 21:52 47.44018 -122.30294 434 ft 4 kts 244°
2026-05-04 21:52 47.44006 -122.30356 434 ft 8 kts 259°
2026-05-04 21:52 47.43997 -122.30470 434 ft 12 kts 267°
2026-05-04 21:52 47.44006 -122.30598 434 ft 13 kts 298°
2026-05-04 21:53 47.44095 -122.30637 434 ft 14 kts 359°
2026-05-04 21:53 47.44206 -122.30635 434 ft 16 kts
2026-05-04 21:53 47.44327 -122.30634 434 ft 17 kts
2026-05-04 21:53 47.44447 -122.30634 434 ft 17 kts
2026-05-04 21:54 47.44571 -122.30633 434 ft 18 kts
2026-05-04 21:54 47.44699 -122.30632 434 ft 18 kts
2026-05-04 21:54 47.44834 -122.30630 434 ft 19 kts
2026-05-04 21:54 47.44971 -122.30629 434 ft 20 kts
2026-05-04 21:55 47.45119 -122.30629 434 ft 21 kts 359°
2026-05-04 21:55 47.45263 -122.30630 434 ft 20 kts
2026-05-04 21:55 47.45405 -122.30627 434 ft 20 kts
2026-05-04 21:55 47.45543 -122.30627 434 ft 19 kts 359°
2026-05-04 21:56 47.45680 -122.30621 434 ft 19 kts
2026-05-04 21:56 47.45814 -122.30621 434 ft 19 kts
2026-05-04 21:56 47.45952 -122.30621 434 ft 18 kts
2026-05-04 21:56 47.46082 -122.30618 434 ft 18 kts
2026-05-04 21:57 47.46210 -122.30615 434 ft 18 kts
2026-05-04 21:57 47.46339 -122.30616 434 ft 17 kts 356°
2026-05-04 21:57 47.46379 -122.30690 434 ft 7 kts 261°
2026-05-04 21:57 47.46363 -122.30764 434 ft 7 kts 223°
2026-05-04 21:58 47.46341 -122.30775 434 ft 0 kts 181°
2026-05-04 21:58 47.46339 -122.30775 434 ft 2 kts 181°
2026-05-04 21:58 47.46087 -122.30778 434 ft 73 kts 181°
2026-05-04 21:59 47.45322 -122.30782 434 ft 140 kts 181°
2026-05-04 21:59 47.44168 -122.30785 556 ft 180 kts 181°
2026-05-04 21:59 47.42932 -122.30737 1233 ft 180 kts 179°
2026-05-04 21:59 47.41674 -122.30625 1948 ft 182 kts 177°
2026-05-04 22:00 47.40383 -122.30486 2544 ft 191 kts 177°
2026-05-04 22:00 47.39011 -122.30338 2972 ft 205 kts 177°
2026-05-04 22:00 47.37524 -122.30180 3331 ft 222 kts 177°
2026-05-04 22:00 47.35916 -122.30015 3647 ft 242 kts 177°
2026-05-04 22:01 47.34130 -122.29833 3994 ft 262 kts 177°
2026-05-04 22:01 47.32243 -122.29658 4465 ft 276 kts 179°
2026-05-04 22:01 47.30309 -122.29688 5170 ft 280 kts 182°
2026-05-04 22:01 47.28358 -122.29791 5908 ft 283 kts 182°
2026-05-04 22:02 47.26387 -122.29896 6639 ft 286 kts 182°
2026-05-04 22:02 47.24396 -122.29988 7349 ft 289 kts 181°
2026-05-04 22:02 47.22355 -122.30070 8029 ft 293 kts 181°
2026-05-04 22:02 47.20314 -122.30145 8680 ft 297 kts 181°
2026-05-04 22:03 47.18227 -122.30216 9353 ft 300 kts 181°
2026-05-04 22:03 47.16114 -122.30286 9997 ft 304 kts 181°
2026-05-04 22:03 47.13982 -122.30355 10510 ft 313 kts 181°
2026-05-04 22:03 47.11715 -122.30428 10810 ft 330 kts 181°
2026-05-04 22:04 47.09321 -122.30505 11091 ft 346 kts 181°
2026-05-04 22:04 47.06846 -122.30586 11364 ft 361 kts 181°
2026-05-04 22:04 47.04262 -122.30670 11626 ft 376 kts 181°
2026-05-04 22:04 47.01601 -122.30756 12029 ft 384 kts 181°
2026-05-04 22:05 46.98906 -122.30846 12578 ft 388 kts 181°
2026-05-04 22:05 46.96157 -122.30935 13135 ft 392 kts 181°
2026-05-04 22:05 46.93363 -122.30984 13681 ft 395 kts 179°
2026-05-04 22:05 46.90597 -122.30953 14258 ft 398 kts 179°
2026-05-04 22:06 46.87796 -122.30946 14789 ft 401 kts 180°
2026-05-04 22:06 46.84909 -122.30947 15307 ft 404 kts 180°
2026-05-04 22:06 46.82089 -122.30949 15831 ft 407 kts 180°
2026-05-04 22:06 46.79214 -122.30953 16331 ft 410 kts 180°
2026-05-04 22:07 46.76349 -122.30956 16791 ft 414 kts 180°
2026-05-04 22:07 46.73455 -122.30960 17021 ft 416 kts 180°
2026-05-04 22:07 46.70502 -122.30964 17022 ft 415 kts 180°
2026-05-04 22:07 46.68325 -122.30967 17038 ft 414 kts 180°
2026-05-04 22:08 46.67408 -122.30969 17041 ft 414 kts 180°
2026-05-04 22:08 46.64492 -122.30964 17023 ft 414 kts 179°
2026-05-04 22:08 46.61641 -122.30965 17004 ft 413 kts 180°
2026-05-04 22:08 46.58727 -122.30968 17031 ft 413 kts 179°
2026-05-04 22:09 46.55854 -122.30965 17027 ft 413 kts 179°
2026-05-04 22:09 46.52944 -122.30969 17017 ft 413 kts 179°
2026-05-04 22:09 46.50052 -122.30966 16752 ft 414 kts 179°
2026-05-04 22:09 46.47167 -122.30968 16274 ft 411 kts 179°
2026-05-04 22:10 46.44316 -122.30968 15790 ft 408 kts 179°
2026-05-04 22:10 46.41441 -122.30966 15292 ft 405 kts 179°
2026-05-04 22:10 46.38615 -122.30968 14801 ft 402 kts 179°
2026-05-04 22:10 46.35819 -122.30967 14307 ft 399 kts 179°
2026-05-04 22:11 46.33030 -122.30968 13818 ft 396 kts 179°
2026-05-04 22:11 46.30304 -122.30968 13327 ft 394 kts 179°
2026-05-04 22:11 46.27559 -122.31020 12824 ft 391 kts 183°
2026-05-04 22:11 46.24878 -122.31590 12334 ft 387 kts 193°
2026-05-04 22:12 46.22278 -122.32768 11821 ft 383 kts 200°
2026-05-04 22:12 46.19793 -122.34156 11319 ft 380 kts 202°
2026-05-04 22:12 46.17347 -122.35563 11079 ft 367 kts 202°
2026-05-04 22:12 46.15004 -122.36900 10894 ft 354 kts 202°
2026-05-04 22:13 46.12762 -122.38162 10717 ft 342 kts 201°
2026-05-04 22:13 46.10521 -122.39414 10553 ft 329 kts 201°
2026-05-04 22:13 46.08373 -122.40605 10368 ft 318 kts 201°
2026-05-04 22:13 46.06280 -122.41740 10112 ft 310 kts 201°
2026-05-04 22:14 46.04230 -122.42841 9772 ft 306 kts 201°
2026-05-04 22:14 46.02223 -122.43919 9407 ft 303 kts 201°
2026-05-04 22:14 46.00238 -122.44984 9050 ft 301 kts 201°
2026-05-04 22:14 45.98274 -122.46040 8691 ft 299 kts 201°
2026-05-04 22:15 45.96315 -122.47094 8332 ft 296 kts 201°
2026-05-04 22:15 45.94359 -122.48130 7981 ft 295 kts 199°
2026-05-04 22:15 45.92333 -122.48605 7596 ft 294 kts 180°
2026-05-04 22:15 45.90295 -122.48267 7249 ft 292 kts 171°
2026-05-04 22:16 45.88258 -122.47726 6946 ft 291 kts 170°
2026-05-04 22:16 45.86593 -122.47271 6651 ft 290 kts 170°
2026-05-04 22:16 45.84573 -122.46738 6253 ft 288 kts 171°
2026-05-04 22:16 45.82641 -122.46242 6214 ft 274 kts 171°
2026-05-04 22:17 45.80795 -122.45779 6180 ft 261 kts 171°
2026-05-04 22:17 45.79030 -122.45339 6143 ft 257 kts 172°
2026-05-04 22:17 45.77249 -122.44898 6146 ft 258 kts 171°
2026-05-04 22:17 45.75474 -122.44457 6146 ft 258 kts 172°
2026-05-04 22:18 45.73661 -122.44008 6147 ft 258 kts 171°
2026-05-04 22:18 45.71841 -122.43557 6146 ft 258 kts 171°
2026-05-04 22:18 45.70007 -122.43102 6146 ft 259 kts 171°
2026-05-04 22:18 45.68225 -122.42660 6145 ft 259 kts 171°
2026-05-04 22:19 45.66413 -122.42212 6143 ft 259 kts 172°
2026-05-04 22:19 45.64599 -122.41763 6145 ft 258 kts 171°
2026-05-04 22:19 45.62812 -122.41323 6143 ft 257 kts 172°
2026-05-04 22:19 45.61052 -122.40806 6135 ft 258 kts 160°
2026-05-04 22:20 45.59561 -122.39384 6125 ft 258 kts 129°
2026-05-04 22:20 45.58577 -122.37232 6138 ft 257 kts 117°
2026-05-04 22:20 45.57764 -122.34981 6138 ft 257 kts 115°
2026-05-04 22:20 45.56960 -122.32662 6139 ft 257 kts 115°
2026-05-04 22:21 45.56159 -122.30332 5874 ft 259 kts 115°
2026-05-04 22:21 45.55365 -122.28018 5534 ft 259 kts 115°
2026-05-04 22:21 45.54576 -122.25700 5194 ft 258 kts 115°
2026-05-04 22:21 45.53805 -122.23408 4847 ft 257 kts 115°
2026-05-04 22:22 45.53035 -122.21101 4512 ft 256 kts 116°
2026-05-04 22:22 45.51996 -122.19052 4113 ft 256 kts 142°
2026-05-04 22:22 45.50409 -122.17986 3789 ft 251 kts 173°
2026-05-04 22:22 45.48722 -122.18198 3536 ft 242 kts 204°
2026-05-04 22:23 45.47395 -122.19576 3257 ft 233 kts 237°
2026-05-04 22:23 45.46818 -122.21682 3033 ft 222 kts 267°
2026-05-04 22:23 45.46989 -122.23804 3020 ft 214 kts 285°
2026-05-04 22:23 45.47367 -122.25854 3020 ft 214 kts 286°
2026-05-04 22:24 45.47734 -122.27961 3015 ft 214 kts 283°
2026-05-04 22:24 45.48121 -122.30020 3013 ft 213 kts 291°
2026-05-04 22:24 45.48709 -122.31992 2927 ft 213 kts 298°
2026-05-04 22:24 45.49431 -122.33830 2922 ft 211 kts 301°
2026-05-04 22:25 45.50181 -122.35659 2911 ft 212 kts 301°
2026-05-04 22:25 45.50902 -122.37460 2943 ft 204 kts 300°
2026-05-04 22:25 45.51575 -122.39185 2752 ft 194 kts 299°
2026-05-04 22:25 45.52219 -122.40855 2488 ft 188 kts 299°
2026-05-04 22:26 45.52846 -122.42483 2236 ft 181 kts 299°
2026-05-04 22:26 45.53423 -122.43976 2027 ft 164 kts 299°
2026-05-04 22:26 45.53961 -122.45367 1787 ft 152 kts 299°
2026-05-04 22:26 45.54471 -122.46684 1602 ft 151 kts 299°
2026-05-04 22:27 45.54977 -122.47988 1414 ft 149 kts 299°
2026-05-04 22:27 45.55484 -122.49294 1220 ft 149 kts 299°
2026-05-04 22:27 45.55996 -122.50611 1024 ft 148 kts 299°
2026-05-04 22:27 45.56459 -122.51803 840 ft 148 kts 299°
2026-05-04 22:28 45.56961 -122.53092 640 ft 147 kts 299°
2026-05-04 22:28 45.57459 -122.54373 446 ft 147 kts 299°
2026-05-04 22:28 45.57960 -122.55648 257 ft 147 kts 299°
2026-05-04 22:28 45.58456 -122.56941 69 ft 147 kts 299°
2026-05-04 22:29 45.58946 -122.58192 77 ft 147 kts 299°
2026-05-04 22:29 45.59534 -122.59468 618 ft 157 kts 315°
2026-05-04 22:29 45.60464 -122.60087 1385 ft 150 kts 347°
2026-05-04 22:29 45.61510 -122.60175 2038 ft 154 kts
2026-05-04 22:30 45.62615 -122.60003 2390 ft 166 kts
2026-05-04 22:30 45.63827 -122.59816 2706 ft 181 kts
2026-05-04 22:30 45.65159 -122.59669 3030 ft 197 kts
2026-05-04 22:30 45.66565 -122.59561 3343 ft 213 kts
2026-05-04 22:31 45.68104 -122.59195 3538 ft 240 kts 24°
2026-05-04 22:31 45.69353 -122.57466 3890 ft 254 kts 63°
2026-05-04 22:31 45.69631 -122.55038 4179 ft 248 kts 101°
2026-05-04 22:31 45.68811 -122.52838 4465 ft 254 kts 136°
2026-05-04 22:32 45.67473 -122.51200 5184 ft 255 kts 141°
2026-05-04 22:32 45.66129 -122.49521 5722 ft 260 kts 136°
2026-05-04 22:32 45.64794 -122.47597 6006 ft 280 kts 133°
2026-05-04 22:32 45.63479 -122.45489 6016 ft 285 kts 130°
2026-05-04 22:33 45.62182 -122.43301 6019 ft 286 kts 129°
2026-05-04 22:33 45.60912 -122.41120 6021 ft 285 kts 129°
2026-05-04 22:33 45.59715 -122.38840 6022 ft 286 kts 122°
2026-05-04 22:33 45.58728 -122.36330 5759 ft 284 kts 114°
2026-05-04 22:34 45.58011 -122.33710 5387 ft 277 kts 106°
2026-05-04 22:34 45.57430 -122.31059 5012 ft 271 kts 108°
2026-05-04 22:34 45.56729 -122.28528 4635 ft 266 kts 112°
2026-05-04 22:34 45.55980 -122.26109 4263 ft 261 kts 114°
2026-05-04 22:35 45.55176 -122.23835 3886 ft 257 kts 127°
2026-05-04 22:35 45.53827 -122.22218 3505 ft 254 kts 158°
2026-05-04 22:35 45.52107 -122.21785 3140 ft 249 kts 189°
2026-05-04 22:35 45.50547 -122.22658 3002 ft 235 kts 222°
2026-05-04 22:36 45.49600 -122.24543 3008 ft 231 kts 255°
2026-05-04 22:36 45.49406 -122.26797 3028 ft 229 kts 271°
2026-05-04 22:36 45.49451 -122.29102 3017 ft 228 kts 274°
2026-05-04 22:36 45.49535 -122.31400 3010 ft 228 kts 275°
2026-05-04 22:37 45.49726 -122.33627 3008 ft 228 kts 284°
2026-05-04 22:37 45.50232 -122.35800 3007 ft 227 kts 295°
2026-05-04 22:37 45.50960 -122.37807 2910 ft 228 kts 300°
2026-05-04 22:37 45.51761 -122.39754 2644 ft 224 kts 301°
2026-05-04 22:38 45.52528 -122.41655 2338 ft 211 kts 300°
2026-05-04 22:38 45.53234 -122.43464 2119 ft 201 kts 299°
2026-05-04 22:38 45.53885 -122.45153 1886 ft 186 kts 299°
2026-05-04 22:38 45.54496 -122.46738 1630 ft 173 kts 299°
2026-05-04 22:39 45.55076 -122.48234 1364 ft 162 kts 298°
2026-05-04 22:39 45.55601 -122.49588 1131 ft 149 kts 298°
2026-05-04 22:39 45.56112 -122.50906 950 ft 148 kts 298°
2026-05-04 22:39 45.56611 -122.52191 771 ft 147 kts 298°
2026-05-04 22:40 45.57117 -122.53491 583 ft 147 kts 299°
2026-05-04 22:40 45.57623 -122.54791 388 ft 146 kts 298°
2026-05-04 22:40 45.58119 -122.56074 198 ft 147 kts 298°
2026-05-04 22:40 45.58614 -122.57341 44 ft 140 kts 298°
2026-05-04 22:41 45.59013 -122.58361 43 ft 93 kts 299°
2026-05-04 22:41 45.59241 -122.58953 43 ft 43 kts 300°
2026-05-04 22:41 45.59368 -122.59276 43 ft 33 kts 300°
2026-05-04 22:41 45.59447 -122.59512 43 ft 16 kts 274°
2026-05-04 22:42 45.59405 -122.59603 43 ft 10 kts 209°
2026-05-04 22:42 45.59341 -122.59652 43 ft 10 kts 194°
2026-05-04 22:42 45.59290 -122.59611 43 ft 9 kts 123°
2026-05-04 22:42 45.59256 -122.59531 43 ft 9 kts 120°
2026-05-04 22:43 45.59221 -122.59440 43 ft 10 kts 118°
2026-05-04 22:43 45.59187 -122.59354 43 ft 4 kts 143°
2026-05-04 22:43 45.59155 -122.59373 43 ft 3 kts 214°
2026-05-04 22:43 45.59137 -122.59389 43 ft 0 kts 211°
2026-05-04 22:44 45.59130 -122.59395 43 ft 1 kts 212°
2026-05-04 22:44 45.59121 -122.59403 43 ft 0 kts 210°
2026-05-04 22:44 45.59118 -122.59405 43 ft 0 kts 210°